Date String (YYYY-MM-DD hh:mm:ss) UTC,Instrument flags,Ambient pressure (hPa),Sample flow (lpm),Bypass flow (lpm),Sample temperature (°C),Ambient temperature (°C),ASC tube jacket temperature (°C),LED temperature (°C),Box temperature (°C),Sample RH (%),Span deviation,Mass concentration (μg/m³),Mass concentration (μg/m³),Mass concentration (μg/m³)
DateTimeUTC,F1_M11,P_M11,Q1_M11,Q2_M11,T1_M11,T2_M11,T3_M11,T4_M11,T5_M11,U1_M11,ZSPAN_M11,X0_M11,X2_M11,X1_M11
2023-03-02 13:00:00,,0815.9,5.01,0.00,21.3,19.0,00.0,30.4,22.4,12.6,0000.0,0011.50,0007.44,0007.08
2023-03-02 13:01:00,,0816.0,5.00,0.00,21.2,19.5,00.0,30.4,22.6,12.6,0000.0,0011.53,0007.50,0007.14
2023-03-02 13:02:00,,0816.1,4.98,0.00,21.4,20.9,00.0,30.3,23.0,12.6,0000.0,0011.27,0007.51,0007.17
2023-03-02 13:03:00,,0816.0,5.01,0.00,21.5,21.9,00.0,30.3,23.3,12.5,0000.0,0011.17,0007.53,0007.19
2023-03-02 13:04:00,,0816.2,4.97,0.00,21.6,22.2,00.0,30.4,23.4,12.5,0000.0,0010.93,0007.48,0007.18
2023-03-02 13:05:00,,0816.1,5.02,0.00,21.6,21.4,00.0,30.4,23.2,12.5,0000.0,0010.87,0007.45,0007.15
2023-03-02 13:06:00,,0816.0,5.00,0.00,21.5,20.6,00.0,30.4,22.9,12.6,0000.0,0010.72,0007.41,0007.13
2023-03-02 13:07:00,,0816.2,4.98,0.00,21.4,20.0,00.0,30.4,22.7,12.7,0000.0,0010.64,0007.40,0007.11
2023-03-02 13:08:00,,0815.7,5.00,0.00,21.3,19.6,00.0,30.4,22.5,12.7,0000.0,0010.36,0007.39,0007.09
2023-03-02 13:09:00,,0815.6,5.00,0.00,21.2,19.2,00.0,30.3,22.4,12.8,0000.0,0010.44,0007.39,0007.07
2023-03-02 13:10:00,,0815.6,5.01,0.00,21.2,19.6,00.0,30.3,22.5,12.9,0000.0,0010.38,0007.36,0007.03
2023-03-02 13:11:00,,0815.6,5.02,0.00,21.3,21.0,00.0,30.2,23.0,12.8,0000.0,0010.31,0007.36,0007.01
2023-03-02 13:12:00,,0815.6,5.00,0.00,21.5,22.2,00.0,30.3,23.3,12.7,0000.0,0010.27,0007.33,0006.98
2023-03-02 13:13:00,,0815.7,5.00,0.00,21.6,22.7,00.0,30.3,23.5,12.6,0000.0,0010.62,0007.32,0006.97
2023-03-02 13:14:00,,0816.1,4.99,0.00,21.6,22.0,00.0,30.4,23.3,12.6,0000.0,0010.87,0007.29,0006.96
2023-03-02 13:15:00,,0816.1,5.02,0.00,21.6,21.3,00.0,30.4,23.1,12.7,0000.0,0010.83,0007.29,0006.97
2023-03-02 13:16:00,,0816.1,4.99,0.00,21.5,20.6,00.0,30.4,23.0,12.7,0000.0,0010.76,0007.29,0006.98
2023-03-02 13:17:00,,0816.0,5.00,0.00,21.5,20.3,00.0,30.4,22.9,12.7,0000.0,0010.75,0007.30,0006.98
2023-03-02 13:18:00,,0815.6,5.01,0.00,21.5,20.0,00.0,30.4,22.9,12.7,0000.0,0010.77,0007.31,0006.97
2023-03-02 13:19:00,,0815.6,4.99,0.00,21.4,19.8,00.0,30.3,22.8,12.7,0000.0,0010.91,0007.32,0006.97
2023-03-02 13:20:00,,0815.6,5.02,0.00,21.4,19.5,00.0,30.3,22.7,12.8,0000.0,0010.83,0007.31,0006.96
2023-03-02 13:21:00,,0815.6,5.00,0.00,21.3,19.7,00.0,30.3,22.7,12.8,0000.0,0010.73,0007.28,0006.93
2023-03-02 13:22:00,,0815.7,5.02,0.00,21.4,20.9,00.0,30.3,23.0,12.8,0000.0,0010.88,0007.26,0006.92
2023-03-02 13:23:00,,0815.8,5.00,0.00,21.5,22.1,00.0,30.3,23.3,12.7,0000.0,0010.89,0007.26,0006.90
2023-03-02 13:24:00,,0815.6,4.96,0.00,21.7,22.7,00.0,30.3,23.5,12.6,0000.0,0010.82,0007.25,0006.87
2023-03-02 13:25:00,,0815.7,5.01,0.00,21.7,22.2,00.0,30.4,23.4,12.6,0000.0,0010.46,0007.27,0006.84
2023-03-02 13:26:00,,0815.6,4.99,0.00,21.7,21.5,00.0,30.4,23.3,12.6,0000.0,0010.51,0007.26,0006.82
2023-03-02 13:27:00,,0815.6,5.00,0.00,21.6,20.9,00.0,30.4,23.2,12.6,0000.0,0010.52,0007.22,0006.79
2023-03-02 13:28:00,,0815.8,4.98,0.00,21.6,20.5,00.0,30.4,23.0,12.7,0000.0,0010.51,0007.19,0006.77
2023-03-02 13:29:00,,0816.0,5.00,0.00,21.5,20.1,00.0,30.4,22.9,12.7,0000.0,0011.01,0007.18,0006.76
2023-03-02 13:30:00,,0816.1,5.01,0.00,21.5,19.8,00.0,30.4,22.8,12.8,0000.0,0011.24,0007.19,0006.75
2023-03-02 13:31:00,,0816.0,5.00,0.00,21.4,19.6,00.0,30.4,22.8,12.8,0000.0,0011.41,0007.19,0006.75
2023-03-02 13:32:00,,0816.1,5.00,0.00,21.4,19.6,00.0,30.3,22.8,12.8,0000.0,0011.55,0007.19,0006.76
2023-03-02 13:33:00,,0816.2,5.02,0.00,21.5,20.9,00.0,30.3,23.1,12.8,0000.0,0011.38,0007.18,0006.77
2023-03-02 13:34:00,,0815.9,5.00,0.00,21.6,22.2,00.0,30.4,23.4,12.7,0000.0,0012.13,0007.16,0006.78
2023-03-02 13:35:00,,0815.6,4.97,0.00,21.7,22.5,00.0,30.4,23.5,12.6,0000.0,0012.16,0007.17,0006.77
2023-03-02 13:36:00,,0815.6,4.99,0.00,21.7,21.8,00.0,30.4,23.4,12.6,0000.0,0012.04,0007.16,0006.78
2023-03-02 13:37:00,,0815.7,5.01,0.00,21.7,21.2,00.0,30.4,23.2,12.7,0000.0,0012.12,0007.19,0006.79
2023-03-02 13:38:00,,0815.7,5.00,0.00,21.6,20.7,00.0,30.4,23.1,12.7,0000.0,0012.10,0007.20,0006.79
2023-03-02 13:39:00,,0815.8,4.99,0.00,21.6,20.3,00.0,30.4,23.0,12.7,0000.0,0012.10,0007.21,0006.79
2023-03-02 13:40:00,,0815.7,4.99,0.00,21.6,20.0,00.0,30.4,23.0,12.7,0000.0,0011.77,0007.23,0006.80
2023-03-02 13:41:00,,0815.7,5.00,0.00,21.5,19.9,00.0,30.4,23.0,12.7,0000.0,0012.73,0007.20,0006.80
2023-03-02 13:42:00,,0815.7,5.00,0.00,21.5,19.7,00.0,30.4,23.0,12.6,0000.0,0012.99,0007.19,0006.80
2023-03-02 13:43:00,,0815.8,4.98,0.00,21.5,19.7,00.0,30.4,23.0,12.6,0000.0,0013.09,0007.21,0006.79
2023-03-02 13:44:00,,0815.8,5.01,0.00,21.5,20.7,00.0,30.4,23.2,12.6,0000.0,0013.07,0007.22,0006.79
2023-03-02 13:45:00,,0815.8,5.00,0.00,21.7,22.1,00.0,30.4,23.5,12.5,0000.0,0012.33,0007.21,0006.79
2023-03-02 13:46:00,,0815.8,5.00,0.00,21.8,22.8,00.0,30.4,23.7,12.5,0000.0,0012.06,0007.18,0006.79
2023-03-02 13:47:00,,0815.7,4.99,0.00,21.9,22.3,00.0,30.5,23.7,12.4,0000.0,0012.09,0007.15,0006.78
2023-03-02 13:48:00,,0815.7,5.00,0.00,21.9,21.8,00.0,30.5,23.6,12.4,0000.0,0012.04,0007.09,0006.76
2023-03-02 13:49:00,,0815.8,5.02,0.00,21.9,21.3,00.0,30.5,23.5,12.5,0000.0,0012.01,0007.07,0006.74
2023-03-02 13:50:00,,0815.8,5.01,0.00,21.8,20.9,00.0,30.5,23.4,12.5,0000.0,0012.02,0007.06,0006.72
2023-03-02 13:51:00,,0815.8,5.00,0.00,21.8,20.7,00.0,30.5,23.4,12.6,0000.0,0011.96,0007.02,0006.68
2023-03-02 13:52:00,,0815.8,4.99,0.00,21.8,20.4,00.0,30.5,23.3,12.7,0000.0,0010.72,0006.95,0006.64
2023-03-02 13:53:00,,0815.8,5.00,0.00,21.7,20.1,00.0,30.5,23.2,12.9,0000.0,0010.01,0006.90,0006.58
2023-03-02 13:54:00,,0815.8,5.00,0.00,21.7,19.8,00.0,30.5,23.1,13.0,0000.0,0009.77,0006.87,0006.54
2023-03-02 13:55:00,,0815.8,5.01,0.00,21.6,19.9,00.0,30.5,23.0,13.1,0000.0,0010.09,0006.82,0006.49
2023-03-02 13:56:00,,0815.9,5.00,0.00,21.7,21.2,00.0,30.5,23.4,13.1,0000.0,0010.31,0006.77,0006.44
2023-03-02 13:57:00,,0815.9,5.04,0.00,21.8,22.5,00.0,30.5,23.7,13.1,0000.0,0010.34,0006.74,0006.39
2023-03-02 13:58:00,,0815.9,5.00,0.00,21.9,22.8,00.0,30.6,23.8,13.0,0000.0,0010.40,0006.68,0006.33
2023-03-02 13:59:00,,0815.8,5.00,0.00,22.0,22.2,00.0,30.6,23.8,13.1,0000.0,0010.39,0006.64,0006.27
